Theta_e
318 317 314 316 315 315 314 316 313 315 314 315 313 316 314 312 311 311 309 310 308 311 308 309 308 309 308 311 309 308 310 309 308 308 309 311 314 315 318 320 324 327 330 331 331 332 331 332 332 332 332 331 329 329 329 328 328 327 326 326 325 325 324 323 323 323 322 322 322 322 321 321 321 321 321 320 320 320 321 321 320 320 319 320 320
318 316 316 316 316 314 314 315 315 314 313 316 315 313 313 311 310 312 312 311 311 312 308 310 311 310 308 311 311 311 310 309 311 310 311 310 312 314 315 318 321 325 328 330 332 332 333 332 332 332 332 331 331 331 330 330 330 329 328 327 326 326 325 325 324 324 323 323 322 322 322 322 321 322 322 321 321 321 320 320 320 320 320 320 320
318 316 315 315 316 317 316 313 314 314 314 316 312 315 313 314 315 313 313 312 312 310 309 312 311 311 309 309 312 311 311 311 310 312 311 311 310 311 313 316 318 321 325 328 330 331 332 332 332 332 333 333 332 332 332 332 330 330 329 329 329 329 328 328 326 325 324 324 323 323 322 322 322 322 322 322 322 321 322 321 321 320 321 320 320
317 316 316 314 316 316 315 314 315 314 314 316 314 313 314 314 312 311 310 310 311 310 309 309 312 312 310 311 311 311 311 311 311 312 312 312 311 310 311 313 315 318 320 324 329 330 332 332 332 332 333 333 333 333 332 332 333 331 330 332 330 331 330 329 328 327 326 326 325 325 324 324 324 323 322 322 322 321 322 321 322 321 321 321 320
317 317 316 315 314 314 315 315 316 315 315 314 313 311 310 310 313 311 312 312 314 316 312 310 310 312 310 311 309 310 311 310 311 311 312 312 312 311 311 311 312 313 315 318 323 326 329 331 331 332 333 333 333 333 332 332 332 331 332 333 333 333 331 329 330 328 328 327 327 326 325 325 324 324 323 322 322 322 322 322 322 323 322 322 322
318 315 316 316 314 314 313 315 314 313 313 311 312 312 313 313 316 314 315 315 315 316 313 314 314 310 309 309 308 309 308 309 310 311 311 311 312 312 313 312 311 312 313 315 317 320 324 328 330 331 331 331 332 333 333 332 332 331 331 331 333 335 333 331 331 332 329 329 328 327 327 327 326 325 325 324 323 323 323 323 322 322 322 323 322
318 317 315 316 315 314 312 315 313 312 312 313 316 315 316 317 317 315 315 314 314 314 313 313 313 313 312 311 311 310 308 310 310 310 311 312 312 312 312 313 314 313 313 313 311 313 318 323 327 330 331 331 331 332 332 333 332 332 333 333 333 334 335 334 330 333 332 329 329 330 328 328 327 326 326 325 325 324 324 324 323 323 323 322 322
319 320 321 319 318 317 317 316 316 318 318 318 317 318 317 317 316 316 315 316 314 314 313 313 312 310 310 309 310 309 309 309 310 311 313 313 312 312 312 312 312 313 312 314 314 312 314 317 321 324 326 329 330 331 332 333 332 332 332 333 333 333 333 334 334 333 332 331 329 328 329 328 327 327 326 326 325 325 325 324 324 324 324 323 323
322 323 324 322 321 321 321 321 321 321 320 319 317 318 317 316 316 315 314 316 314 313 313 312 310 309 308 308 309 309 309 309 310 311 312 311 311 311 311 311 311 310 312 313 313 313 312 314 317 318 318 322 326 328 329 331 331 332 332 332 333 333 332 332 332 330 330 330 329 330 329 328 329 329 328 328 327 326 325 325 325 324 324 324 324
326 325 326 325 325 324 324 322 321 321 320 319 318 318 317 316 314 312 314 314 314 314 312 311 306 308 309 309 310 308 309 309 309 307 308 309 310 310 311 310 311 311 311 311 311 312 311 312 314 314 313 315 321 324 327 328 329 330 331 332 332 333 332 331 331 330 330 330 330 329 329 329 328 329 329 327 327 327 327 326 325 325 325 325 325
327 326 326 323 322 321 323 324 322 319 319 319 319 318 317 316 315 317 315 315 313 312 311 310 311 311 311 312 310 309 309 308 308 307 308 308 309 309 308 309 309 309 309 309 309 309 309 310 310 311 312 313 317 320 323 325 325 327 329 330 331 331 332 330 330 329 329 329 329 330 329 329 328 328 328 329 328 327 328 327 326 326 325 325 325
328 328 327 325 324 324 324 321 320 319 320 320 318 315 315 314 313 313 313 310 308 310 311 312 311 311 310 310 308 308 308 309 308 308 308 307 307 306 307 308 306 307 307 308 308 307 307 308 308 309 310 311 313 314 317 318 319 322 325 327 329 329 330 329 329 329 328 329 329 329 330 329 329 328 329 329 329 328 328 329 328 328 327 326 326
322 323 326 324 325 324 323 321 320 317 317 319 319 316 316 317 312 310 312 308 309 310 311 311 310 311 309 307 309 309 309 308 309 308 307 307 307 307 307 306 306 306 307 307 307 307 306 306 307 307 308 308 309 310 312 314 315 318 322 324 326 328 329 330 330 329 328 328 328 329 329 329 329 329 329 329 328 328 327 328 330 330 328 328 327
324 323 323 324 324 323 323 323 321 319 318 318 314 313 315 311 313 313 310 311 308 309 312 312 308 308 310 311 311 310 310 308 307 307 306 307 307 306 306 305 306 306 306 306 306 306 306 306 305 305 305 306 306 307 307 308 310 315 320 322 324 326 327 328 327 327 327 327 328 328 327 328 328 328 329 329 329 329 329 329 330 329 327 328 329
324 323 325 325 325 324 323 322 321 319 320 319 316 315 314 314 314 316 315 308 311 311 311 313 312 308 309 307 306 307 307 302 297 301 304 305 305 304 305 304 305 305 305 304 304 304 304 303 303 303 304 304 304 305 306 305 306 308 314 315 317 322 325 326 326 327 326 325 326 326 326 326 327 327 328 329 329 329 329 329 329 330 328 328 331
325 325 325 326 325 324 324 323 323 320 321 320 319 318 317 316 314 312 311 313 308 310 312 311 312 311 307 305 305 303 303 303 298 304 301 305 303 304 303 304 305 305 303 303 304 303 303 303 303 303 303 303 303 304 304 305 306 306 306 306 308 314 319 323 325 326 327 326 325 325 326 325 326 326 326 327 328 329 329 329 329 328 329 329 328
325 326 324 326 326 325 321 321 321 319 320 322 320 320 320 320 315 312 314 316 315 312 310 310 311 312 312 307 305 301 302 306 307 310 307 304 302 301 302 302 303 304 302 304 304 304 304 304 304 303 303 303 303 303 303 304 304 304 304 301 303 309 313 319 322 324 325 326 325 324 325 325 325 325 326 326 327 328 328 328 328 328 328 328 328
325 324 324 323 325 324 322 321 321 322 322 322 321 320 319 318 317 317 316 315 315 313 311 309 309 309 310 313 311 308 307 307 306 303 307 307 311 307 304 305 303 302 302 303 304 305 304 304 304 304 304 304 304 303 304 304 304 304 304 306 310 311 313 315 320 323 325 325 324 324 324 324 323 324 325 325 325 325 326 326 326 327 327 327 328
324 324 324 324 324 322 323 323 321 320 317 320 319 318 317 317 316 316 316 314 313 312 312 310 308 308 308 309 309 308 307 304 302 303 301 305 306 303 306 306 306 305 304 304 305 304 304 303 303 303 303 304 304 304 303 304 305 305 308 310 313 314 314 315 315 318 321 322 323 323 323 324 323 323 324 324 324 324 324 325 325 325 325 325 326
323 322 323 323 322 320 321 321 320 320 316 315 317 317 316 315 314 315 314 313 312 312 311 311 310 309 306 307 306 306 306 305 306 303 300 297 302 305 307 307 307 308 306 306 306 305 304 304 304 304 303 303 303 303 303 303 303 303 304 309 313 314 315 315 315 315 317 319 322 322 323 323 324 323 323 323 323 324 324 325 324 324 325 325 326
318 319 319 319 317 320 321 320 318 318 316 317 317 317 316 315 313 312 314 314 313 312 311 311 310 309 308 305 303 303 304 304 303 302 300 299 301 303 304 306 306 306 305 303 305 306 305 305 304 303 304 303 303 303 302 302 302 302 304 307 311 315 317 317 315 314 314 313 316 318 320 322 322 323 324 324 323 323 324 323 323 324 324 324 324
315 316 318 318 319 319 319 318 318 317 315 317 315 314 314 312 313 313 313 312 312 311 310 310 309 309 308 307 305 303 302 301 300 303 302 302 299 300 302 301 299 301 305 305 303 302 304 305 306 305 303 303 303 302 302 301 302 302 303 304 308 311 314 313 313 313 312 312 313 314 316 319 321 322 323 323 323 322 322 322 322 323 323 323 324
310 309 310 313 314 314 316 315 316 312 313 313 312 311 310 312 312 311 310 310 310 310 309 309 309 308 308 308 307 306 304 302 303 303 302 298 299 299 300 301 300 299 301 301 302 303 304 304 304 305 305 304 303 302 301 301 300 301 301 303 306 308 309 310 312 312 312 313 314 314 315 316 317 318 320 322 322 322 322 321 321 322 322 322 323
305 305 304 308 310 310 310 310 310 311 311 311 311 311 312 311 310 309 308 308 308 307 307 306 307 306 306 307 306 306 305 304 304 303 301 300 299 297 298 299 298 298 300 299 300 302 302 302 303 304 304 304 304 303 303 302 302 301 300 302 305 308 311 313 315 314 313 313 313 313 313 313 314 314 316 318 320 321 321 321 321 321 320 321 321
299 303 304 306 307 308 307 306 304 301 301 304 305 307 306 306 307 307 306 306 306 305 304 305 305 304 304 304 304 302 301 303 302 301 302 302 300 296 296 297 294 294 294 295 294 294 301 301 302 303 303 302 303 303 303 302 302 301 300 301 303 305 306 308 310 311 311 311 311 312 312 313 313 313 314 315 317 318 319 319 319 320 320 320 320
300 301 301 302 303 303 302 300 299 299 300 302 304 305 303 301 301 302 300 300 302 301 300 300 300 300 301 300 300 299 299 301 302 302 301 299 296 294 294 294 293 291 292 288 290 291 290 295 299 300 300 300 301 302 301 301 302 300 299 299 302 303 304 306 308 309 310 310 310 311 310 310 311 311 312 315 315 315 317 318 319 319 319 319 319
301 298 298 300 299 299 298 298 298 298 298 300 302 302 301 300 299 297 297 297 296 296 296 296 296 297 298 298 298 299 300 300 300 298 298 298 296 296 294 290 289 288 286 287 287 287 289 290 295 298 298 298 300 299 300 299 299 299 297 300 301 300 302 305 307 308 307 307 308 309 308 308 308 309 308 309 312 313 315 316 317 317 317 317 316
296 297 295 297 297 297 296 296 296 296 296 297 297 297 297 297 296 296 295 295 294 292 292 292 293 293 294 294 294 294 293 293 293 294 295 297 297 297 295 292 289 285 287 285 284 285 285 287 288 294 297 296 296 296 296 297 298 298 296 298 299 299 300 302 305 305 305 305 305 305 305 306 306 307 307 308 308 309 310 310 310 310 308 308 308
296 295 295 295 295 295 295 294 294 293 294 293 293 293 294 293 293 291 291 292 292 291 291 291 289 291 292 292 293 292 290 290 289 290 293 295 296 296 296 293 292 288 285 283 285 284 287 286 285 287 292 291 294 293 294 295 296 296 296 297 297 297 298 301 303 303 303 303 303 303 303 303 304 305 305 306 306 307 307 307 307 307 308 308 309
295 294 294 294 293 292 293 292 291 291 291 290 290 290 290 288 289 289 289 288 286 285 286 287 288 289 290 290 289 288 289 288 288 288 288 291 292 294 295 295 295 290 289 286 285 287 286 287 288 288 289 290 290 290 290 291 293 293 293 293 294 295 297 299 299 300 301 301 301 301 302 302 303 303 303 304 304 304 306 307 307 307 308 310 311
293 293 292 291 290 288 289 288 289 288 288 287 287 287 286 286 285 286 285 284 283 284 284 285 285 285 285 285 285 286 286 286 286 285 285 286 288 290 292 293 293 292 290 288 285 286 286 286 288 288 288 289 290 289 289 289 290 291 291 291 291 293 293 293 294 297 298 298 299 300 301 302 301 301 301 301 302 303 304 305 304 306 307 307 308
292 291 290 289 288 288 286 287 287 286 286 285 285 285 286 285 284 285 284 284 284 283 284 282 284 283 283 284 284 284 284 283 283 283 284 284 285 286 287 288 291 292 291 288 286 285 288 287 287 288 288 287 288 287 287 288 290 290 289 289 290 290 290 291 292 294 296 297 298 298 299 300 300 300 300 300 302 303 303 303 303 304 305 306 306
288 289 288 288 288 287 287 287 287 286 287 286 283 283 284 284 283 283 282 283 285 282 282 283 283 283 283 283 284 283 283 282 282 282 282 283 282 283 284 286 288 288 289 287 285 284 285 287 286 286 287 287 286 287 286 287 287 288 289 289 289 289 289 290 290 291 293 295 295 296 297 298 298 298 298 299 299 300 300 301 302 303 303 303 303
288 288 288 287 286 287 287 287 285 285 285 284 283 282 283 283 283 283 282 281 284 282 282 283 283 282 282 282 283 283 282 282 282 282 282 282 282 282 282 281 282 282 283 285 284 283 282 284 284 286 285 286 284 286 285 285 286 287 287 287 288 288 288 289 289 289 292 294 294 295 296 297 297 297 297 297 298 300 301 302 300 299 301 301 301
286 287 286 286 286 286 286 285 285 284 284 283 282 283 283 284 284 283 282 283 283 283 282 282 282 282 282 281 281 281 282 282 282 281 281 281 281 281 281 281 281 282 282 282 283 282 281 282 284 283 284 284 284 284 285 286 286 286 286 286 286 287 288 288 288 289 291 293 294 294 295 295 295 296 296 296 296 296 297 297 298 298 299 299 300
286 284 285 286 285 285 285 284 284 284 284 283 283 283 284 284 284 284 283 282 282 282 281 281 282 282 282 282 282 282 282 282 281 281 281 281 281 281 280 281 281 281 281 281 282 282 282 281 282 282 283 283 284 285 285 286 285 285 285 286 286 286 286 287 287 288 289 292 292 293 293 294 294 294 295 294 295 295 295 295 296 297 298 297 298
285 285 284 284 284 285 285 284 284 283 283 283 284 283 283 282 283 283 282 282 281 281 281 282 283 282 282 282 282 282 281 281 280 280 281 280 281 281 281 281 281 281 281 281 281 282 281 280 281 283 283 283 284 284 284 284 284 284 285 284 284 285 285 286 287 288 290 291 291 291 291 291 291 292 294 294 294 294 294 295 295 295 296 296 296
284 284 284 283 284 283 283 283 283 283 282 282 282 282 282 282 282 282 281 281 282 281 281 282 282 281 281 281 281 281 280 280 280 280 280 280 280 280 280 280 280 281 281 281 281 281 281 281 281 280 282 282 281 282 284 283 282 282 282 283 284 284 284 285 286 287 287 287 287 287 289 289 290 291 292 293 293 293 294 294 294 294 294 294 295
284 283 283 283 282 283 283 283 283 283 282 282 282 282 282 282 282 282 282 282 282 282 281 282 281 281 280 280 279 280 280 280 280 279 279 280 280 279 280 280 280 280 280 280 280 280 280 280 280 281 281 282 282 281 282 283 282 282 281 281 281 283 284 284 283 284 285 285 287 289 289 289 290 289 291 292 293 293 293 293 293 293 293 294 294
283 283 283 282 282 282 282 282 282 282 282 282 282 281 282 282 282 282 282 281 281 281 281 281 281 280 280 279 280 280 280 280 280 280 280 280 280 279 280 280 280 279 279 279 280 281 281 281 281 281 281 281 281 281 282 281 280 280 282 282 280 281 282 283 283 282 283 284 284 285 287 288 288 289 290 291 292 292 292 292 292 292 292 293 293
283 282 282 282 282 282 281 281 281 281 282 283 283 283 283 283 282 282 282 281 281 280 280 279 279 279 279 279 279 279 281 282 284 284 284 284 281 279 279 279 279 280 280 281 281 281 281 281 280 280 280 279 279 279 279 279 278 279 281 282 281 281 282 281 282 284 284 284 284 285 285 286 286 286 286 286 287 288 288 290 290 290 292 292 293
281 281 281 281 281 281 281 281 281 282 282 284 286 289 288 283 282 282 282 281 280 279 278 278 279 279 279 279 279 281 282 282 282 283 283 283 283 282 281 281 281 281 281 280 280 280 279 278 278 279 278 278 279 279 279 280 281 281 281 281 279 280 281 281 282 283 284 284 283 282 283 285 284 284 285 284 285 286 286 287 288 289 291 293 293
281 280 281 280 280 280 280 280 280 281 282 285 288 288 289 288 283 281 280 280 279 278 278 278 278 278 278 278 278 279 279 280 279 282 282 282 282 283 283 283 283 281 280 279 279 280 279 278 279 279 278 278 279 280 280 280 281 281 281 281 280 280 279 279 277 281 285 284 282 281 281 284 284 283 283 284 284 285 286 287 290 291 292 293 293
280 280 280 280 280 280 280 280 279 280 282 287 288 288 288 287 284 280 279 279 279 278 278 278 278 277 277 277 278 279 278 279 279 278 279 281 282 282 283 283 283 284 284 282 280 279 279 278 278 278 279 278 279 280 280 280 280 281 281 280 280 280 279 279 279 278 282 284 281 280 280 284 284 283 283 284 285 286 287 289 291 292 293 293 293
279 280 279 279 279 279 279 279 279 279 281 286 287 287 287 286 284 281 278 278 278 277 277 277 277 277 277 277 277 278 278 279 278 277 277 278 281 282 283 283 283 283 283 284 284 282 281 279 279 279 279 279 279 280 281 281 282 280 280 280 280 280 280 279 280 280 282 284 282 280 280 282 284 283 283 284 285 286 287 289 291 292 292 293 293
279 279 279 279 279 278 278 278 278 279 280 285 286 286 286 285 284 281 278 279 279 278 277 276 276 276 276 276 276 276 276 276 276 277 278 279 281 281 281 281 281 282 283 283 283 283 282 281 280 279 281 281 280 281 282 283 281 279 279 279 280 280 280 280 281 282 283 284 281 281 280 282 284 283 282 284 286 286 286 289 291 292 293 293 293
279 278 278 278 278 277 277 278 278 279 281 284 285 285 285 284 283 281 279 279 278 278 277 277 277 276 276 276 276 276 276 276 277 279 279 280 281 281 280 280 280 281 281 281 281 281 281 281 281 281 281 282 282 282 282 282 281 281 281 281 281 281 281 283 283 283 283 284 284 282 278 281 284 283 283 284 286 286 287 288 290 291 292 292 292
277 278 277 278 277 277 278 278 278 277 279 283 284 284 284 284 282 279 278 278 277 277 277 277 277 277 276 275 275 275 275 276 278 281 282 282 281 280 279 279 279 279 280 281 282 282 281 281 281 281 282 282 283 282 282 282 282 282 282 282 282 281 280 279 279 281 281 283 284 282 280 281 284 282 283 285 285 285 286 285 288 289 290 290 290
277 276 276 277 277 277 277 277 277 277 277 281 283 283 283 283 280 277 277 276 276 276 277 278 278 277 276 275 275 275 275 276 279 282 284 283 280 279 278 278 278 278 277 278 280 282 283 283 284 284 284 284 284 284 284 284 282 282 281 279 278 280 278 277 278 279 279 282 283 283 282 280 283 283 282 284 284 283 283 283 283 285 287 288 289
277 277 277 277 277 277 276 276 276 275 275 278 282 282 283 283 280 277 276 275 275 276 277 278 277 277 277 278 277 275 276 277 281 283 283 282 279 278 278 277 276 275 274 276 278 280 282 282 282 282 282 283 283 283 283 283 283 283 279 277 278 279 277 278 276 278 280 281 282 284 281 280 283 283 282 283 283 280 276 276 279 280 282 283 286
277 277 277 276 276 276 276 276 278 275 274 276 280 281 282 282 279 276 276 273 275 276 277 276 277 277 276 277 278 278 278 280 282 283 283 281 279 278 277 276 274 273 275 277 278 278 278 277 277 278 279 279 278 277 278 282 282 282 280 280 280 279 277 277 278 278 277 279 283 285 280 280 281 282 282 279 279 281 276 278 277 276 276 278 281
Wind_Speed
5 5 3 4 3 3 3 4 3 3 2 2 2 3 3 2 2 3 3 3 3 4 3 3 3 3 3 5 4 4 4 3 4 4 4 4 5 6 9 9 9 11 13 15 15 15 15 15 15 15 16 15 15 14 14 14 16 17 13 14 15 16 13 15 14 14 14 15 15 16 16 16 17 17 16 16 17 18 17 16 16 17 18 17 18
5 4 5 5 4 3 3 3 4 2 2 3 3 2 3 3 3 4 3 4 4 5 3 4 4 4 3 5 5 5 4 5 5 4 5 4 5 5 8 10 9 11 13 14 16 16 17 17 17 17 18 17 17 18 17 17 17 17 16 16 17 18 16 17 16 15 16 16 17 17 17 17 17 19 19 18 17 19 18 18 19 19 19 19 19
5 5 5 4 4 4 4 3 3 3 3 5 2 4 3 4 5 5 4 4 6 3 2 5 5 5 4 4 5 5 6 5 5 5 4 6 5 5 6 9 10 10 12 14 15 17 18 18 19 19 19 20 18 17 18 19 19 18 18 18 19 21 21 20 17 17 18 18 18 18 18 19 18 19 19 19 19 20 21 18 20 20 20 21 20
4 4 5 4 4 5 4 3 5 4 4 5 4 4 4 4 3 3 3 2 4 3 1 2 6 6 4 5 5 5 6 5 6 6 5 5 6 5 5 6 9 11 11 13 15 16 17 19 20 21 21 21 21 21 20 20 21 17 21 20 22 22 22 24 20 19 19 20 21 19 20 22 21 19 19 20 20 22 21 22 22 21 23 21 21
5 5 5 5 4 4 4 4 5 4 4 4 3 2 2 3 4 2 2 2 3 5 2 2 4 6 5 6 4 6 5 5 6 6 6 6 6 6 6 6 6 8 11 11 12 15 16 18 19 21 22 23 23 23 23 23 22 23 22 22 22 21 25 22 23 21 22 22 22 22 22 22 22 22 22 22 23 22 23 24 24 22 22 23 22
4 4 4 4 4 4 4 4 5 3 3 2 3 4 4 2 5 2 4 3 4 5 4 5 5 5 5 5 4 6 5 5 6 6 6 6 6 6 7 6 6 6 6 10 12 12 14 16 17 19 21 22 24 24 25 24 24 24 24 24 24 21 23 24 24 19 26 23 21 22 24 22 22 24 24 24 24 25 24 24 26 25 25 26 25
4 5 4 4 4 4 3 5 3 2 2 3 3 2 3 4 1 2 3 4 4 4 4 5 6 7 7 5 6 6 4 6 6 6 6 7 6 6 7 6 6 6 6 6 8 12 13 15 16 17 19 21 22 24 26 26 26 26 25 26 26 27 23 25 23 20 20 24 22 22 25 25 26 25 25 25 24 25 25 25 25 27 27 28 27
4 3 4 3 4 4 5 3 3 3 3 2 2 4 4 4 3 2 4 6 5 5 4 6 6 6 6 6 6 6 6 6 6 6 7 5 6 7 7 7 6 7 7 7 7 8 12 12 14 15 16 19 21 23 25 26 27 27 27 27 28 29 28 27 25 21 21 22 23 23 22 22 22 26 27 26 26 26 27 26 27 26 28 28 29
4 3 4 3 3 3 3 3 2 3 3 3 4 4 3 3 4 4 3 5 3 4 6 6 5 5 5 6 7 6 6 6 7 7 6 6 7 7 7 7 7 7 7 7 7 7 9 12 12 14 15 16 19 20 22 24 28 29 29 28 29 28 28 28 28 24 22 22 22 23 23 24 22 25 25 25 26 29 31 29 28 29 29 29 29
5 4 4 4 4 4 3 2 2 2 2 2 4 1 2 3 4 3 4 3 5 6 8 6 3 4 5 7 7 6 7 7 7 6 6 7 7 7 7 6 7 7 7 7 7 7 6 9 12 14 14 14 17 19 21 22 24 26 28 29 28 28 28 28 28 28 27 27 26 25 23 22 26 24 24 28 28 30 31 32 32 30 30 30 31
6 5 4 4 3 3 4 4 3 2 2 2 3 2 3 3 5 5 3 5 6 6 5 4 5 5 6 8 6 7 7 7 7 7 7 7 7 7 5 7 6 6 6 6 6 6 7 7 7 7 9 13 15 18 20 21 22 24 26 27 27 28 28 28 28 28 28 27 27 28 26 26 25 26 25 25 29 30 29 32 33 33 33 33 33
6 6 7 6 6 6 6 5 3 3 4 3 4 4 5 4 5 5 6 4 4 5 4 5 4 5 8 8 6 7 8 8 7 7 7 6 6 6 7 6 6 7 6 6 6 6 6 7 7 8 8 11 14 14 17 19 19 22 24 25 26 26 27 27 28 28 29 28 29 29 28 28 28 28 27 28 29 29 29 29 31 34 33 33 34
4 4 6 6 6 5 5 3 3 4 4 6 5 4 4 4 3 2 4 3 3 3 3 2 2 6 5 6 6 6 8 8 8 7 6 6 6 6 6 6 6 6 6 5 6 6 6 7 7 7 8 7 8 12 14 15 16 20 22 24 24 25 25 27 28 28 28 28 29 29 29 29 28 28 29 28 27 27 29 30 31 31 33 32 35
5 4 4 3 4 4 3 6 3 5 4 3 4 4 4 4 2 3 3 4 3 1 2 2 2 3 5 7 6 5 7 5 6 5 5 6 6 5 6 5 7 6 5 5 6 6 7 7 6 7 7 7 7 7 8 9 10 15 20 21 22 23 25 26 27 28 28 28 29 29 29 30 30 30 29 28 29 29 31 28 28 31 30 34 37
5 5 5 5 5 4 5 4 5 3 3 4 5 4 3 4 4 5 4 1 4 3 3 5 4 0 1 3 5 9 3 3 2 4 4 6 5 5 5 5 7 6 5 6 6 6 5 6 7 7 7 7 7 7 7 8 11 15 17 20 20 23 25 26 26 27 28 28 29 30 29 30 31 31 31 31 32 32 32 31 30 29 28 34 34
5 5 5 5 5 5 6 6 4 3 4 4 4 5 4 4 5 4 2 4 2 4 2 3 3 1 4 1 4 1 7 2 3 5 4 5 4 6 4 6 6 7 6 6 7 6 7 6 7 7 7 7 7 7 8 8 12 15 16 17 18 20 23 25 25 27 28 29 29 30 30 29 29 32 32 32 32 32 33 34 33 31 28 28 31
6 6 5 6 6 6 4 4 4 4 3 6 6 5 5 5 4 3 6 6 5 1 1 2 3 2 2 3 4 0 4 5 7 8 3 3 3 3 5 4 6 6 5 7 6 7 7 8 8 7 8 8 7 7 8 8 9 8 11 14 15 16 20 23 25 26 27 28 30 30 30 29 29 30 32 32 32 32 31 31 31 34 33 33 32
5 5 5 5 5 5 3 4 6 6 6 4 3 3 3 3 2 3 4 4 4 3 2 0 2 2 3 5 2 5 7 4 6 5 2 4 7 5 6 6 6 6 5 6 8 8 7 8 7 8 8 7 7 8 8 8 9 9 8 11 16 17 18 21 24 26 27 28 29 29 30 31 30 30 29 31 33 33 32 32 32 31 31 32 32
5 5 5 5 4 4 5 4 2 0 1 0 0 1 2 2 2 2 2 1 1 1 3 2 2 1 1 3 5 3 2 3 4 5 9 1 1 5 6 6 7 6 7 8 8 7 7 7 8 8 8 7 8 8 7 9 11 12 13 16 20 20 20 19 21 23 25 26 27 27 28 29 31 31 31 31 32 33 34 34 34 34 34 33 34
4 4 4 4 4 3 2 2 3 3 3 3 2 2 1 2 2 1 1 1 1 1 2 2 2 2 1 1 1 2 2 2 4 4 6 11 8 3 4 5 6 8 8 10 10 8 8 7 7 8 7 7 7 7 7 8 8 8 9 14 18 20 20 21 20 20 22 24 26 27 28 29 30 31 32 32 33 33 32 31 33 35 34 33 33
2 3 3 3 2 3 3 5 4 2 5 6 4 3 3 4 4 3 5 5 4 2 2 2 2 2 3 2 3 2 3 3 2 0 3 7 10 6 10 5 5 7 7 5 8 9 9 9 8 8 8 8 8 7 7 7 8 8 9 13 17 20 22 22 21 21 21 22 23 26 27 29 30 30 30 31 33 33 33 33 33 33 33 34 34
3 3 4 4 5 5 4 5 5 4 2 5 5 3 3 3 3 6 4 5 3 5 3 1 1 3 3 2 2 2 2 2 2 4 2 5 8 12 10 13 14 8 8 8 5 6 8 10 12 9 7 7 7 7 7 7 8 8 10 14 15 18 21 21 21 21 22 22 22 23 25 27 28 30 30 30 31 32 34 33 33 34 35 34 34
4 4 4 4 5 4 4 5 5 4 4 4 4 4 3 4 6 5 5 6 4 4 4 4 3 4 4 4 4 3 3 2 4 4 3 4 8 9 11 10 11 16 5 3 8 9 9 8 9 10 8 8 8 7 7 7 8 10 15 15 15 16 18 19 20 20 20 21 22 22 23 24 26 28 29 29 31 32 33 34 35 34 35 35 35
3 3 3 4 5 4 5 6 5 4 4 3 3 4 4 4 4 4 5 5 4 5 4 3 3 3 4 3 3 2 3 3 3 3 4 5 6 10 10 11 9 5 10 10 6 9 8 7 8 9 9 8 9 8 8 7 9 15 14 14 14 16 19 20 21 21 20 20 21 23 24 25 26 28 29 30 31 32 33 33 33 34 35 36 36
3 5 3 3 3 6 5 6 5 4 4 4 4 4 4 4 5 5 5 5 4 4 4 3 3 3 2 3 3 2 2 2 2 3 3 4 6 9 8 6 9 13 7 5 5 3 7 8 7 8 8 7 8 8 7 8 8 11 14 11 16 15 19 19 21 21 21 20 21 22 24 26 28 28 29 30 32 32 33 33 34 35 35 34 37
5 4 4 4 4 5 6 6 4 4 4 4 4 4 4 4 5 6 4 4 4 4 3 3 4 4 3 2 3 3 3 3 4 3 5 5 5 7 10 8 6 10 10 2 3 6 3 3 6 7 7 7 7 7 7 8 8 13 15 13 14 17 18 21 21 20 23 23 24 24 26 27 29 30 29 31 32 33 33 34 35 35 35 36 36
6 5 4 6 5 5 5 6 5 4 4 5 4 5 5 6 5 5 5 4 5 5 4 4 4 4 3 3 2 2 3 3 4 4 3 4 6 7 8 12 11 7 6 7 7 4 7 4 5 6 7 6 7 6 7 6 9 13 15 12 12 18 18 24 24 26 27 29 28 26 28 29 31 32 32 32 35 34 34 34 35 35 36 36 36
4 6 4 5 6 6 6 6 5 5 4 5 5 5 5 6 5 5 5 3 5 5 4 4 3 2 2 3 3 3 3 3 3 3 3 3 5 4 5 5 8 13 14 13 7 7 4 3 4 7 7 6 4 5 7 9 9 17 16 11 12 14 18 22 25 28 30 29 31 31 32 31 35 36 37 36 36 35 35 36 36 36 39 38 39
6 5 6 5 5 6 6 5 5 4 5 5 5 5 5 5 5 6 5 3 5 4 3 3 3 3 3 4 3 4 3 4 3 3 4 3 3 4 4 5 5 7 9 10 18 8 8 3 4 4 2 3 8 6 7 8 10 12 11 11 12 12 17 22 24 29 30 32 32 32 32 33 33 36 36 36 35 35 37 36 36 36 37 39 37
6 5 6 6 6 6 6 5 4 5 5 5 5 5 6 5 4 4 3 3 5 3 3 3 3 3 3 4 3 4 4 4 4 4 3 4 4 3 4 4 4 7 6 10 15 12 8 10 3 4 10 11 6 9 7 7 12 14 10 11 11 12 19 22 24 24 27 31 31 31 32 33 35 37 34 32 35 36 37 36 35 37 36 35 36
7 7 7 6 6 5 6 5 5 6 5 6 5 5 5 6 4 5 4 5 5 4 2 3 2 3 4 4 4 4 4 5 5 5 4 4 4 3 4 3 3 5 8 8 12 9 2 10 12 6 9 15 11 8 11 9 10 14 12 11 11 16 21 19 22 25 25 29 29 32 32 33 36 36 35 35 35 37 35 36 37 35 35 36 36
6 7 6 7 6 6 5 6 6 6 6 5 5 6 6 5 5 4 2 3 4 4 3 2 2 4 5 5 4 4 4 4 4 4 4 4 4 3 3 3 3 4 6 8 10 19 17 11 14 16 9 12 15 11 12 11 8 14 13 12 14 19 15 13 19 23 23 26 29 29 31 32 33 35 36 36 35 34 35 35 36 36 35 35 35
7 7 7 6 6 6 6 6 6 6 6 6 4 5 5 5 3 4 3 4 4 3 3 4 4 4 5 4 4 4 3 4 4 4 4 4 3 3 3 3 4 4 5 8 11 16 19 11 7 12 13 12 16 10 13 14 15 13 13 12 13 14 14 12 14 19 22 23 27 31 31 33 34 35 35 34 35 35 36 35 36 36 36 34 35
6 7 7 6 6 7 7 7 6 6 5 6 4 4 5 4 4 3 5 5 4 3 3 4 4 4 3 4 4 4 3 3 4 4 4 4 4 4 4 3 4 4 4 4 8 11 19 20 16 11 12 5 13 11 12 14 16 17 19 15 11 11 13 13 14 15 22 21 27 31 31 32 33 35 35 35 34 34 34 35 35 36 34 36 36
4 6 7 7 7 7 7 6 6 6 5 5 4 5 4 4 4 4 3 4 4 4 4 4 4 3 4 4 4 4 4 5 4 4 4 4 4 4 5 4 4 5 4 5 7 12 16 19 17 15 13 12 11 14 13 12 13 13 17 17 14 13 13 14 13 13 19 23 29 32 33 34 34 34 36 35 36 37 37 36 36 34 36 35 35
8 5 6 7 7 7 8 7 6 6 5 5 5 4 4 4 4 4 4 4 3 3 4 4 4 4 4 5 6 5 5 6 6 6 5 4 5 5 4 5 5 6 5 4 6 8 12 16 20 16 14 15 16 12 12 13 13 12 13 16 16 15 15 14 14 13 18 30 32 33 33 34 34 34 34 37 37 37 38 38 36 35 34 35 35
6 7 6 5 7 7 8 7 6 6 5 5 5 4 4 4 4 4 4 3 3 4 4 4 5 4 5 5 5 5 5 6 6 6 6 7 6 6 7 6 6 6 6 6 8 8 11 15 18 16 15 14 12 13 10 13 16 15 13 15 14 15 14 14 13 13 17 23 24 26 31 35 39 37 36 34 37 37 38 37 36 34 34 35 34
7 6 7 5 7 7 6 6 6 6 5 5 5 4 4 4 4 4 3 4 4 4 4 4 4 4 4 4 4 4 5 5 6 6 6 7 7 7 7 7 7 7 7 7 7 9 10 13 13 17 16 16 15 13 11 10 13 16 16 16 15 11 13 14 10 8 10 11 15 13 17 23 25 32 33 33 34 38 36 35 35 35 31 30 32
8 8 6 8 5 7 6 7 6 6 5 4 4 4 4 4 4 4 4 4 4 5 4 4 3 3 3 3 4 4 4 5 5 6 7 6 6 6 7 7 6 6 8 8 8 9 10 12 12 11 13 12 10 16 10 10 12 12 13 15 15 15 12 16 18 14 11 14 14 21 21 22 25 23 23 29 33 33 33 33 34 34 29 29 31
7 7 8 8 6 6 7 7 6 5 5 4 4 4 4 4 5 5 5 5 5 5 4 4 3 3 3 4 4 4 4 5 5 5 5 6 5 6 6 6 7 7 8 8 8 9 10 10 10 11 10 12 12 9 13 12 11 10 8 11 16 15 16 14 16 19 16 13 13 10 13 18 18 19 22 22 24 26 27 28 26 26 26 28 31
6 6 6 7 9 8 7 6 6 4 5 5 3 4 5 5 5 5 5 5 5 4 3 3 3 3 4 4 4 4 5 8 10 9 8 9 7 8 7 5 7 8 9 8 8 9 8 10 11 10 11 13 13 12 13 13 12 14 13 12 13 14 13 16 14 14 12 14 15 12 11 12 13 15 15 15 17 21 21 23 20 22 24 28 31
7 6 7 7 7 8 8 6 5 5 5 3 7 11 8 5 4 5 5 5 4 3 3 4 4 4 4 4 4 8 9 8 8 9 13 13 13 10 8 8 9 9 9 9 9 7 9 11 11 11 14 14 13 10 12 12 12 14 15 14 16 14 15 12 14 12 13 8 13 15 14 12 11 14 13 14 14 16 13 12 12 16 20 28 31
7 6 7 8 7 6 7 6 6 5 4 5 11 11 12 11 6 6 5 4 3 3 3 3 4 5 5 4 4 5 6 6 5 10 14 15 14 15 15 15 13 11 11 11 10 9 9 10 11 11 12 16 16 12 12 13 12 14 14 14 12 14 13 16 17 15 8 13 14 15 17 14 10 14 14 13 13 13 13 12 21 23 26 30 31
6 6 8 7 6 5 6 6 6 5 5 9 12 12 11 13 10 6 4 4 4 3 3 3 3 4 5 5 4 4 4 6 7 6 8 13 14 15 16 15 15 16 16 13 12 12 11 12 13 11 10 12 14 13 12 11 13 12 13 14 14 13 15 14 14 15 15 13 15 16 17 18 9 12 14 14 13 12 13 19 24 26 29 31 32
7 8 7 7 6 4 5 7 7 6 5 10 12 12 11 12 13 8 5 3 4 4 3 3 3 3 4 5 5 4 5 8 7 6 7 8 11 14 16 16 16 16 17 19 19 14 12 12 14 15 13 11 13 12 11 14 12 16 14 13 13 13 13 14 14 14 16 12 11 13 16 16 12 14 16 15 12 11 13 16 21 24 28 31 31
7 7 6 7 6 5 5 7 7 6 6 9 11 11 11 11 11 8 3 4 3 3 3 3 3 3 4 5 6 6 5 5 6 7 8 9 10 10 9 9 9 12 15 17 19 20 17 12 12 14 13 11 13 14 14 12 14 14 15 15 15 16 13 17 20 19 16 12 11 13 15 18 13 13 16 15 12 11 11 14 21 24 27 29 29
7 7 7 7 5 5 5 5 7 7 6 10 11 11 10 11 11 7 4 3 3 2 2 2 3 3 3 4 4 6 6 6 7 11 11 11 10 10 10 10 9 9 8 8 9 9 9 8 11 12 14 13 13 14 14 13 14 14 13 15 16 15 18 18 16 15 15 12 13 12 15 16 12 13 15 14 12 11 11 13 19 22 24 24 26
5 6 4 5 6 6 5 5 7 7 6 11 10 10 10 10 10 4 4 4 3 3 3 3 3 3 3 3 4 5 6 6 11 17 17 14 11 12 12 12 9 7 6 7 14 16 14 13 12 12 13 16 22 20 19 18 15 14 14 15 13 13 12 13 14 13 12 11 10 11 13 14 12 13 14 13 12 12 11 11 13 19 20 22 25
6 5 5 5 4 6 6 6 7 6 5 8 10 10 10 10 6 4 4 4 3 4 5 5 3 3 3 3 3 4 5 7 12 19 21 20 10 11 13 14 13 11 10 8 12 18 20 22 25 27 28 28 27 28 28 30 23 19 14 12 13 11 15 13 13 13 14 12 9 11 13 14 11 13 14 13 11 12 11 10 8 13 19 22 25
7 6 6 6 5 5 6 6 5 6 4 6 9 9 9 11 8 5 4 4 3 3 4 4 4 3 4 7 6 4 6 7 14 19 21 16 10 11 12 14 17 15 13 11 10 13 20 21 23 23 23 23 23 25 27 26 25 19 12 14 15 14 14 13 15 12 13 12 10 6 9 12 13 12 14 13 12 6 5 5 7 9 14 16 21
7 6 5 7 6 5 6 6 8 6 4 5 8 9 10 10 7 4 4 3 3 4 5 5 5 4 4 5 9 10 9 11 18 18 19 15 10 10 11 12 14 14 13 13 14 16 17 17 16 14 13 15 14 13 13 23 24 19 12 12 12 11 14 14 13 13 12 9 6 7 13 13 14 13 12 13 13 8 2 5 6 8 10 10 12
Wind_Direction
190 205 176 207 209 198 196 210 216 232 186 220 189 239 265 267 282 287 309 295 284 287 292 297 300 297 281 295 297 296 292 269 251 268 276 268 268 268 269 271 273 275 274 271 273 279 282 282 281 278 275 273 271 272 271 264 258 269 261 263 258 252 259 248 252 260 266 265 266 264 267 267 264 262 261 259 261 257 248 247 252 255 255 251 252
195 196 184 212 209 207 208 217 216 222 194 219 219 208 245 265 276 276 279 281 291 274 284 287 294 290 297 293 294 282 278 279 281 261 257 267 260 265 270 266 266 267 267 270 270 272 276 279 282 281 278 279 276 274 275 274 269 266 259 251 255 255 242 238 254 262 258 255 259 263 262 258 259 259 259 261 254 252 251 255 256 255 254 252 251
188 190 202 209 207 200 217 218 231 230 207 234 203 211 225 232 235 243 249 263 269 295 319 303 298 301 294 298 284 302 290 287 285 281 272 261 260 259 264 266 264 262 265 265 267 268 271 275 279 280 282 285 285 283 278 274 277 279 274 265 259 257 265 269 256 248 248 252 249 248 255 259 256 256 261 261 259 255 255 253 251 253 249 250 253
188 187 195 203 211 211 221 202 232 228 208 224 224 217 220 240 251 254 262 278 287 299 321 302 297 290 303 291 298 294 287 291 290 288 285 282 268 262 263 268 268 266 264 266 266 268 269 272 274 277 279 280 283 285 283 280 277 271 271 273 270 264 265 265 269 251 250 252 255 255 246 251 261 264 262 257 256 255 256 252 250 248 248 251 248
198 194 193 197 202 210 224 229 238 230 216 222 225 218 234 255 263 234 273 292 306 294 319 297 284 288 298 283 297 286 284 293 285 287 281 276 277 269 264 262 263 272 271 267 267 266 267 268 270 274 277 280 282 285 287 286 283 281 278 272 268 268 269 275 273 273 261 259 253 253 246 243 253 253 249 251 253 251 252 252 254 258 257 253 252
184 205 195 197 199 201 214 241 244 243 231 200 207 203 218 228 251 264 271 288 279 288 316 300 282 286 285 281 291 277 292 292 275 272 275 276 271 272 269 265 261 260 263 267 264 264 265 265 267 269 273 275 279 282 284 286 285 284 282 281 277 269 276 278 277 269 270 263 272 269 261 256 249 250 251 251 249 250 249 249 251 250 249 253 254
183 175 187 185 193 209 212 232 232 213 226 223 216 201 217 238 243 248 276 272 259 268 275 276 279 278 277 281 278 276 273 268 282 278 273 271 272 269 266 265 263 262 262 263 267 263 261 265 267 269 270 273 275 278 281 282 284 285 285 285 285 284 280 277 280 277 274 275 267 268 267 266 267 260 251 253 251 250 250 248 248 249 248 247 250
183 172 165 175 177 193 217 222 219 185 208 217 213 233 213 228 222 198 258 261 251 264 235 256 259 272 280 291 283 284 283 280 275 275 271 277 272 272 269 265 265 261 261 263 263 263 260 263 266 266 270 274 277 277 280 283 284 284 284 285 286 284 285 284 279 276 276 271 268 264 267 268 266 263 263 258 254 252 247 247 249 249 248 248 247
183 181 174 176 174 185 209 207 186 192 200 208 194 211 235 250 245 243 269 282 279 269 266 252 269 274 292 288 282 287 279 272 269 267 280 270 270 268 268 269 263 265 262 261 265 268 274 270 269 271 274 275 276 278 280 280 281 283 286 287 287 288 289 290 290 284 275 271 271 267 268 265 256 264 259 254 253 253 252 250 246 243 244 247 248
174 182 186 188 193 189 203 202 173 183 212 196 243 251 197 200 257 252 216 230 255 257 267 281 286 291 286 277 278 274 269 268 264 266 262 268 267 267 266 269 267 261 263 267 268 279 281 280 280 282 281 278 276 278 278 278 280 281 282 283 286 289 290 292 293 293 292 288 283 278 271 267 267 259 258 261 257 257 258 253 248 246 245 243 242
170 170 194 203 223 234 226 217 167 178 188 203 220 212 215 219 224 263 237 224 239 256 273 300 296 291 284 278 282 281 278 270 266 264 260 260 272 276 289 270 268 271 273 272 276 283 284 283 286 285 282 281 280 281 281 281 283 283 283 282 282 283 285 287 290 291 291 291 291 288 280 274 272 269 264 257 259 259 253 253 251 249 248 246 245
180 183 194 214 224 227 227 211 189 193 209 219 242 224 227 232 244 237 261 276 243 257 257 273 281 277 277 282 273 277 280 272 275 266 273 276 269 278 272 278 275 277 271 272 278 275 277 279 279 277 279 281 281 279 279 280 281 281 282 282 282 283 284 285 286 288 289 288 289 289 289 288 282 279 275 269 265 261 255 251 255 255 251 249 249
223 209 216 216 216 217 216 236 219 202 217 226 227 248 248 233 250 208 243 283 293 223 256 205 288 297 271 267 289 260 261 275 270 277 276 271 273 273 275 286 276 274 275 274 271 268 266 269 271 274 274 276 279 278 279 279 279 280 279 280 280 282 283 286 289 289 288 288 289 289 290 289 290 289 285 280 275 266 263 260 257 251 249 249 250
204 200 210 209 218 220 218 232 228 231 226 236 236 233 241 241 218 270 198 221 258 240 214 118 289 244 314 316 292 267 256 255 268 274 272 272 269 268 276 279 283 278 280 277 272 267 266 266 268 268 270 272 271 274 278 279 278 276 280 282 284 286 287 289 290 291 290 289 287 287 288 288 288 287 286 285 284 282 281 275 265 262 257 253 250
206 199 201 201 206 210 225 233 241 207 212 240 248 264 244 240 205 217 259 206 239 249 200 184 247 270 302 321 308 331 332 326 317 280 260 262 264 276 283 288 280 281 286 295 283 282 281 269 266 269 273 271 270 270 272 273 274 275 278 282 282 284 286 287 289 290 290 289 288 288 286 286 287 286 286 286 285 284 284 282 276 270 267 264 256
213 207 202 200 198 209 221 225 238 214 221 245 246 238 235 241 228 238 218 282 237 268 190 185 218 320 318 183 289 350 312 298 308 286 227 266 300 286 294 287 289 296 316 290 289 294 283 278 276 279 279 275 272 273 273 272 276 279 277 277 277 278 280 282 285 290 292 292 292 292 292 291 291 291 289 288 285 284 284 284 284 283 277 272 269
211 210 203 209 212 222 221 219 220 215 197 228 235 239 238 241 210 184 201 227 270 301 328 182 225 229 257 323 316 325 231 290 338 308 331 3 304 287 295 279 282 291 301 288 287 282 281 285 282 279 274 274 273 271 271 274 281 282 281 277 274 273 277 280 284 287 290 293 293 293 292 292 292 291 291 291 290 290 289 287 288 288 287 286 282
215 212 210 219 222 219 219 222 221 217 228 230 215 264 277 271 219 213 227 237 243 290 288 43 203 215 216 219 240 284 316 326 344 306 346 265 286 314 305 301 292 291 282 278 277 274 267 276 275 278 279 278 275 275 274 280 281 281 278 280 277 277 277 279 282 285 289 293 295 295 295 294 293 293 291 290 290 290 289 288 288 289 290 288 288
219 212 217 217 218 220 227 241 291 341 83 69 352 262 235 217 174 183 207 148 146 244 287 317 333 255 239 263 282 288 314 326 299 306 312 312 343 300 297 297 307 310 301 284 276 279 276 268 280 277 278 274 273 271 276 274 274 273 271 276 279 279 279 277 279 282 287 290 292 294 294 294 294 294 293 292 291 290 289 287 287 286 285 283 284
213 212 209 214 220 217 162 139 120 127 137 110 81 29 59 49 64 127 111 95 132 140 314 338 2 305 93 286 282 276 260 248 245 281 291 306 311 263 240 291 308 294 290 297 299 292 287 281 278 280 273 271 268 269 269 272 272 272 275 272 276 278 279 280 278 280 283 286 290 291 293 294 294 294 293 293 292 291 290 289 289 288 286 286 286
163 168 164 156 147 128 120 120 104 72 90 85 76 70 76 83 82 90 77 64 60 71 61 359 3 354 340 356 322 319 316 259 283 236 302 309 300 317 313 286 262 284 288 260 276 288 294 292 276 269 278 279 276 272 269 271 270 270 269 270 273 278 281 283 283 283 283 285 286 287 289 291 293 294 294 293 293 293 292 292 291 290 290 291 289
87 96 107 109 113 119 117 101 101 95 83 104 100 96 88 93 87 70 71 85 64 68 68 41 50 40 24 299 14 332 336 359 13 336 264 240 284 318 318 323 318 301 301 289 259 275 285 291 295 289 273 267 274 269 267 264 267 270 267 266 270 274 277 279 279 279 279 281 282 282 285 289 291 293 293 293 292 292 291 291 291 290 290 289 288
103 75 77 101 97 94 107 104 102 110 105 98 114 121 124 88 75 86 81 77 72 81 71 53 50 57 47 42 35 28 20 347 337 345 338 319 318 308 313 315 312 311 290 267 300 282 268 271 272 280 285 288 283 279 267 268 271 269 269 272 272 272 272 273 275 274 274 276 277 280 283 285 287 288 290 290 291 290 290 289 290 291 291 289 288
94 91 71 82 99 94 92 95 94 97 95 116 124 103 90 109 123 93 79 79 79 76 73 65 54 52 52 39 38 32 26 9 339 334 336 315 307 293 306 314 299 240 297 305 254 260 266 255 256 267 272 277 282 277 282 278 277 279 284 284 282 282 284 286 287 288 286 286 287 287 288 288 288 289 289 289 289 290 289 289 289 289 289 289 288
112 110 105 103 116 107 94 91 88 89 115 92 85 97 94 83 86 88 84 81 83 84 80 73 63 61 44 33 36 33 22 353 347 341 318 314 312 309 298 304 296 303 293 291 297 237 237 254 253 258 267 267 274 279 281 288 282 286 289 292 289 287 291 290 289 288 288 285 283 285 287 288 287 286 288 289 290 290 290 290 290 290 288 288 288
143 131 138 118 91 99 99 92 90 89 89 90 82 82 83 86 84 83 78 75 77 83 84 76 68 57 47 51 33 3 8 359 355 339 346 334 325 325 319 312 285 286 305 271 288 325 318 266 260 260 266 274 266 277 289 288 296 297 300 302 302 300 297 297 295 289 289 286 284 284 288 290 290 290 288 288 288 289 289 290 290 289 289 289 289
133 133 126 112 107 97 97 97 93 91 89 88 83 81 81 79 76 81 71 67 74 74 60 68 60 45 40 32 6 4 13 1 4 353 353 355 333 332 337 329 322 299 294 296 298 245 264 277 255 270 271 257 279 284 294 305 303 304 307 308 302 301 300 301 299 298 297 296 292 288 288 289 289 290 290 290 291 290 290 290 290 290 290 291 290
121 120 106 111 111 102 91 90 90 88 85 92 92 86 85 88 76 72 64 24 75 70 56 63 70 56 49 22 29 350 337 343 350 335 350 347 336 328 333 328 324 319 324 314 312 297 251 289 292 240 256 283 298 324 329 318 313 309 310 307 303 302 301 300 300 301 301 300 300 299 299 297 296 295 294 292 291 290 290 291 291 290 290 288 286
122 116 113 100 106 109 101 97 91 93 89 85 88 91 87 81 81 64 64 44 61 63 40 58 28 24 24 11 360 333 342 353 347 350 341 334 326 323 326 316 315 305 319 314 311 322 305 317 293 306 217 347 343 326 316 301 301 300 302 301 299 299 300 301 301 303 303 302 301 302 300 298 296 296 296 295 294 293 292 291 291 291 289 289 288
120 120 114 105 96 97 105 101 97 88 91 84 86 88 91 78 85 77 74 67 72 42 37 49 39 43 30 7 0 346 346 359 340 328 339 323 314 311 311 308 308 298 293 303 299 302 297 308 182 287 319 311 317 308 311 301 299 303 299 300 301 298 299 300 299 299 298 299 299 301 301 300 301 301 300 298 298 296 294 293 292 292 292 292 291
120 119 105 104 104 101 108 110 100 95 85 84 88 84 89 92 66 64 28 42 68 52 1 36 34 64 49 18 356 346 350 351 337 335 331 334 315 315 300 295 293 291 294 292 299 283 353 313 303 308 305 308 316 322 310 315 311 311 308 306 304 301 301 300 297 296 296 298 299 301 302 300 300 300 300 299 297 297 295 295 294 293 293 292 291
114 111 116 120 124 122 124 115 100 91 85 76 76 79 74 70 68 72 40 83 80 62 16 51 61 82 82 25 351 341 336 345 331 325 318 310 313 309 300 299 290 286 287 288 275 284 297 299 301 304 317 311 313 324 316 315 312 310 310 310 307 304 301 299 298 297 297 299 300 301 301 300 298 298 297 296 296 296 297 296 295 294 292 291 291
121 121 124 131 135 128 112 97 96 93 88 76 51 84 87 92 89 117 114 82 72 41 36 21 28 37 36 18 338 328 333 338 320 318 317 309 317 309 302 304 284 274 281 283 285 290 296 292 282 296 315 328 312 329 322 320 318 316 308 308 307 305 303 302 302 301 301 301 301 301 301 301 301 300 300 299 298 297 296 295 295 295 297 296 294
129 130 134 137 122 109 102 99 95 93 88 85 89 90 90 84 75 70 65 70 62 46 46 34 17 21 15 5 340 335 335 330 321 329 324 329 333 333 321 305 286 284 267 283 284 287 292 305 306 307 303 315 299 320 322 321 319 319 315 314 308 303 306 307 305 304 302 300 302 304 304 304 303 302 302 301 301 300 299 298 297 295 293 292 291
126 136 135 121 113 108 103 102 99 92 93 90 83 86 85 83 74 57 61 68 60 44 38 30 22 15 19 8 344 342 344 347 344 337 335 334 327 326 314 304 294 283 274 254 282 291 296 296 300 306 310 316 310 315 321 315 311 313 311 314 317 314 308 306 303 300 305 305 307 307 306 305 304 303 302 302 301 301 300 299 298 296 295 294 293
130 122 115 118 112 110 107 102 96 100 93 92 86 82 83 82 74 63 52 53 49 47 41 27 18 21 13 1 351 348 347 351 342 344 342 335 331 324 311 305 292 293 280 270 257 273 291 297 301 307 312 316 314 316 317 310 311 313 310 308 311 310 310 308 307 305 305 306 308 307 308 306 304 303 302 302 301 299 298 298 297 295 295 295 295
126 119 106 108 109 105 105 107 103 93 95 94 87 80 75 79 83 77 67 60 48 38 34 24 18 17 4 359 335 341 347 347 338 343 337 337 333 329 323 316 311 299 295 284 280 276 283 287 295 301 307 304 302 306 318 319 317 315 311 308 308 310 306 300 296 293 300 309 310 308 306 303 303 300 299 299 298 297 297 296 296 296 294 295 295
121 113 117 107 107 105 102 103 100 97 90 86 88 88 82 79 80 86 81 67 54 40 32 22 16 10 359 338 333 336 344 345 332 328 333 331 328 323 316 312 306 301 298 293 282 281 279 282 290 299 303 309 312 305 316 315 313 314 315 311 306 306 305 301 296 303 304 304 309 303 297 295 294 296 297 299 297 296 293 295 296 295 294 294 294
125 119 110 105 95 104 104 99 96 98 94 88 86 84 85 84 83 74 60 55 43 38 27 15 6 358 345 333 331 339 339 334 329 326 323 321 317 311 305 305 304 304 302 298 294 288 284 286 287 283 293 295 297 306 318 324 311 306 308 311 311 314 316 316 311 305 298 294 286 289 291 291 290 290 291 293 293 292 294 295 296 296 296 296 293
117 118 116 110 108 97 97 96 99 98 94 86 82 83 81 76 69 58 58 50 42 33 23 9 2 349 343 343 341 336 336 324 321 316 321 316 315 310 306 306 307 307 301 298 295 292 293 290 287 299 294 301 305 296 306 310 306 297 299 307 306 314 314 308 303 306 309 302 305 302 288 288 291 292 291 293 290 288 289 290 289 289 288 287 288
102 106 110 111 108 98 89 96 97 92 90 85 91 88 73 62 61 60 54 49 48 36 18 5 354 360 353 349 340 334 327 322 322 324 323 326 325 319 315 312 307 306 305 304 304 303 298 296 295 293 296 299 298 306 311 314 316 311 312 311 298 300 301 302 299 295 299 312 309 304 299 297 301 300 303 300 292 288 284 282 282 280 281 283 283
106 106 102 97 101 109 109 100 98 91 82 77 68 69 73 80 71 68 58 53 47 39 26 7 359 0 354 344 333 327 325 324 326 327 333 332 328 323 318 322 320 318 314 312 305 302 300 297 296 304 305 301 301 304 301 299 302 304 306 309 305 306 306 296 290 296 307 301 305 307 302 293 300 296 296 292 293 290 289 281 279 279 278 278 279
108 107 105 102 101 104 111 114 103 91 78 70 67 66 64 73 79 63 58 49 48 45 35 20 1 348 341 337 328 327 327 332 334 332 334 330 327 323 320 316 316 315 314 308 300 298 294 285 288 293 291 297 296 298 298 301 300 303 302 301 297 304 305 311 311 308 305 327 314 308 305 299 306 295 296 297 296 293 286 282 283 282 281 280 281
111 108 99 102 107 112 112 107 95 87 77 69 70 68 66 72 72 62 58 49 43 35 27 15 355 345 333 331 329 329 334 337 337 328 320 319 322 320 316 313 311 308 303 300 303 304 301 300 297 288 288 287 294 299 301 302 303 300 298 299 299 301 303 303 300 300 306 315 307 304 298 298 307 292 295 297 298 293 285 287 290 288 286 288 287
120 108 111 107 108 112 112 105 93 81 73 68 71 69 68 70 67 65 57 53 47 32 15 5 351 343 334 330 329 333 336 334 327 316 309 306 306 308 311 308 306 301 302 301 295 292 295 291 292 292 293 299 294 292 296 298 299 297 300 299 300 301 299 295 295 297 299 304 303 293 294 297 308 303 298 300 299 295 289 290 284 288 289 290 289
115 114 113 111 114 107 106 103 95 82 70 68 72 70 69 70 66 67 66 59 51 34 17 356 350 345 336 334 329 332 329 325 320 316 312 308 311 308 304 298 294 295 298 296 296 295 292 283 282 287 292 294 292 295 299 300 301 301 302 298 301 301 300 297 296 293 290 299 293 293 291 296 303 303 297 299 301 294 288 282 284 286 289 290 294
124 124 126 117 110 108 104 101 95 83 70 68 70 67 66 68 64 71 80 66 64 44 11 3 350 339 327 324 325 317 320 323 316 322 322 318 314 309 302 297 289 288 287 285 293 302 300 291 287 288 293 294 292 297 300 303 300 298 297 297 299 296 290 285 284 284 288 290 291 295 291 294 302 299 295 300 302 298 292 291 292 291 292 297 297
100 108 102 104 110 105 102 98 94 83 65 64 64 62 61 65 66 73 67 52 48 29 11 12 338 321 310 317 320 316 318 316 311 321 326 326 321 314 309 306 301 292 276 297 308 308 305 302 297 295 297 299 301 301 303 304 305 303 299 296 288 286 287 293 292 296 286 292 292 293 291 290 300 300 298 300 302 298 299 298 294 300 307 306 300
122 115 115 107 107 102 95 90 91 88 69 55 58 59 57 66 77 64 73 48 33 26 15 1 344 332 324 320 322 316 313 308 305 324 330 332 321 316 315 314 314 312 308 302 300 307 307 305 304 304 303 303 304 305 307 309 308 306 304 298 299 302 298 295 295 299 298 301 299 289 292 296 303 307 304 305 305 301 298 300 315 319 315 310 305
126 127 124 106 92 89 92 91 91 92 76 47 56 56 56 60 75 75 53 42 18 17 8 355 344 332 329 328 326 318 311 305 320 330 332 333 324 322 319 321 323 323 317 318 313 310 312 308 304 300 297 299 306 307 306 304 307 310 304 300 300 299 297 297 299 299 295 294 290 294 302 296 308 310 312 310 307 286 298 317 323 322 323 317 311
121 123 115 107 99 82 81 87 88 86 79 48 49 54 55 55 71 78 58 47 32 14 358 344 339 333 330 331 331 330 324 322 328 332 334 334 326 324 326 324 320 315 314 316 317 319 322 320 315 312 311 312 308 301 295 303 310 308 291 286 292 294 298 297 294 297 291 291 302 320 306 305 314 316 324 316 310 305 133 318 332 338 327 322 312